Vorticity
15 15 9 4 6 7 11 10 22 14 15 15 12 11 20 21 17 14 6 8 13 4 5 4 3 4 3 4 8 9 5 7 4 3 6 5 0 4 1 3 4 10 10 4 3
21 15 16 21 16 19 7 21 10 16 21 13 16 13 10 18 21 15 12 6 9 13 3 5 5 4 4 4 6 6 2 5 3 4 2 3 4 6 1 -1 2 7 13 6 4
21 21 13 22 30 20 17 13 22 15 17 19 14 16 15 13 21 17 16 8 10 9 11 3 5 1 2 3 6 5 6 3 3 3 5 5 -1 -0 2 4 6 7 6 6 5
1 23 23 21 20 23 24 15 13 12 14 8 8 16 19 11 14 14 19 15 8 10 11 10 6 6 2 4 5 6 5 5 2 2 3 6 6 2 0 -0 6 9 7 7 6
17 24 25 9 18 14 15 16 17 16 14 14 12 11 18 14 11 15 15 22 16 7 6 14 8 6 8 5 2 5 4 4 4 4 3 3 2 1 1 4 11 9 8 7 5
-0 16 22 14 17 11 8 11 8 16 16 15 12 22 10 20 13 3 10 11 20 17 14 7 13 3 6 4 4 6 7 2 3 4 3 4 4 3 6 7 11 7 7 7 4
5 14 1 18 22 12 17 8 -38 47 0 9 21 23 23 14 18 8 5 8 11 16 18 7 12 9 4 3 4 3 6 5 2 1 2 3 3 2 5 10 8 8 8 7 5
13 10 21 -3 1 -3 0 14 30 30 27 29 20 16 18 21 15 16 13 7 1 12 19 13 11 10 7 7 5 3 3 6 5 2 1 0 3 2 7 11 7 9 8 8 6
12 13 10 29 -5 4 4 17 29 -2 21 50 22 33 27 13 20 20 6 5 8 7 16 12 10 11 13 11 6 3 5 7 7 5 7 8 11 8 11 8 9 9 7 6 5
15 7 22 14 2 -9 17 18 28 40 -1 16 45 -7 34 30 18 27 15 9 8 7 7 11 13 9 7 6 10 12 10 6 7 6 6 8 6 14 8 8 8 7 6 7 7
1 18 8 14 27 25 8 10 9 5 9 15 72 3 -4 15 1 17 16 13 5 6 14 10 11 12 10 6 4 6 2 4 9 9 6 5 12 8 8 10 7 7 7 7 7
3 8 13 3 8 20 12 11 10 9 7 11 26 61 17 13 15 9 13 12 8 9 11 12 11 12 10 7 7 6 7 6 7 7 6 10 7 7 10 9 8 7 5 5 5
7 8 11 24 16 22 11 11 17 12 12 15 10 10 19 23 15 14 14 15 15 11 14 13 11 10 10 10 7 6 6 7 7 6 8 9 7 7 6 6 6 5 5 5 5
10 13 13 20 16 16 8 9 8 10 13 11 10 10 9 16 19 17 15 17 15 12 12 10 9 9 7 6 6 5 5 6 5 9 8 6 7 7 5 5 6 5 5 4 3
10 8 18 19 10 9 7 10 15 14 5 10 11 12 13 13 16 19 16 17 13 13 8 10 9 10 7 4 6 6 6 6 7 7 6 5 5 7 6 5 4 4 4 5 4
10 11 3 26 5 4 4 10 16 10 14 7 17 15 13 8 13 13 13 13 11 10 12 10 7 6 6 6 6 6 7 7 7 6 6 5 4 5 4 4 5 4 4 5 5
7 9 7 33 12 16 11 13 10 6 27 19 24 6 12 14 9 15 11 12 13 13 10 7 7 6 6 6 7 6 6 5 5 6 7 5 3 3 5 6 3 4 6 8 9
8 8 4 6 38 28 30 7 11 26 24 8 10 11 15 12 9 10 12 9 9 9 8 8 5 7 6 5 6 5 5 5 4 4 6 1 2 3 3 8 8 8 6 7 10
12 6 9 5 11 -2 -1 30 21 3 -3 8 29 3 6 9 11 8 8 10 8 7 7 6 6 6 6 5 5 5 5 5 3 2 3 3 3 4 5 6 8 6 6 8 10
7 12 11 7 7 10 8 4 -2 21 23 0 8 16 14 9 16 10 7 8 7 7 7 6 6 6 4 3 4 -2 6 2 8 9 5 4 5 6 6 5 6 9 10 11 10
13 6 10 10 7 8 11 9 11 9 7 19 6 2 14 -7 2 19 14 7 14 13 12 7 8 10 9 8 4 7 5 4 2 3 5 6 6 5 8 8 7 9 13 16 9
9 13 14 6 13 8 7 8 10 9 11 13 6 -1 -1 4 9 4 1 7 7 8 9 9 6 6 6 4 4 3 3 3 5 6 4 6 7 11 8 7 13 10 3 2 3
2 6 7 16 12 6 8 13 9 7 7 9 9 9 10 8 6 3 5 4 4 4 4 6 6 6 5 5 6 6 7 6 6 7 5 6 11 7 9 9 2 4 8 12 13
4 3 5 5 5 15 15 4 5 10 13 10 8 8 7 7 8 9 10 10 9 8 7 8 6 6 7 7 6 7 7 8 8 13 13 10 4 4 5 9 13 11 4 2 5
5 6 4 4 4 3 3 8 17 11 4 1 3 8 12 14 16 14 13 12 12 12 13 14 14 13 13 13 12 10 6 4 3 5 9 15 18 9 7 3 2 2 4 5 3
5 6 3 8 4 3 4 5 3 1 6 11 15 11 8 5 4 7 10 10 9 6 9 6 8 7 7 6 5 10 9 5 5 2 2 2 5 4 4 7 6 5 4 2 4
13 6 5 3 1 2 4 5 4 4 2 4 4 3 4 5 4 3 3 2 1 1 1 2 2 3 2 4 4 3 3 4 2 2 4 4 3 3 4 4 4 5 6 6 5
Height
5669 5666 5663 5662 5661 5660 5661 5661 5663 5665 5669 5674 5679 5685 5692 5702 5713 5728 5742 5754 5767 5778 5788 5799 5808 5816 5824 5832 5839 5845 5852 5857 5857 5857 5869 5871 5870 5873 5875 5878 5878 5880 5880 5879 5881
5665 5661 5657 5654 5653 5653 5654 5655 5657 5659 5663 5667 5672 5679 5686 5693 5704 5720 5731 5745 5758 5769 5780 5791 5801 5810 5819 5827 5834 5840 5847 5850 5854 5857 5865 5867 5869 5869 5873 5874 5875 5876 5876 5876 5877
5663 5658 5652 5648 5646 5646 5648 5649 5651 5655 5658 5663 5668 5673 5680 5689 5701 5711 5721 5735 5749 5760 5771 5782 5792 5802 5812 5820 5828 5835 5842 5847 5852 5856 5861 5864 5865 5864 5869 5871 5872 5871 5872 5873 5873
5664 5659 5653 5647 5645 5644 5645 5646 5648 5651 5655 5659 5664 5668 5674 5683 5695 5701 5714 5726 5739 5752 5765 5776 5787 5798 5806 5816 5824 5830 5836 5844 5847 5851 5857 5859 5861 5862 5865 5867 5868 5867 5867 5868 5869
5667 5661 5654 5650 5648 5647 5646 5646 5647 5648 5651 5655 5659 5662 5669 5678 5689 5700 5711 5722 5733 5747 5759 5770 5782 5792 5803 5812 5818 5824 5834 5840 5843 5847 5852 5854 5858 5859 5862 5862 5862 5864 5864 5864 5864
5672 5664 5658 5655 5651 5649 5649 5648 5646 5646 5646 5649 5653 5658 5665 5672 5685 5697 5708 5719 5730 5740 5752 5764 5774 5783 5795 5804 5811 5820 5829 5835 5839 5842 5847 5851 5853 5855 5858 5857 5857 5858 5859 5859 5860
5675 5670 5665 5659 5655 5653 5650 5647 5641 5639 5641 5644 5648 5652 5660 5671 5682 5692 5704 5716 5726 5736 5747 5757 5768 5781 5787 5796 5805 5817 5824 5830 5834 5839 5843 5846 5850 5851 5854 5853 5854 5854 5854 5854 5855
5678 5674 5669 5665 5661 5657 5650 5644 5639 5636 5637 5638 5644 5649 5656 5667 5679 5691 5702 5714 5724 5734 5743 5755 5763 5774 5785 5795 5805 5813 5820 5825 5831 5835 5839 5842 5846 5848 5849 5850 5850 5850 5849 5851 5850
5684 5677 5672 5669 5666 5661 5656 5648 5643 5641 5639 5637 5643 5650 5659 5667 5678 5689 5700 5711 5722 5732 5741 5751 5760 5771 5783 5793 5802 5809 5816 5822 5827 5832 5835 5838 5842 5844 5844 5845 5845 5845 5846 5847 5845
5689 5683 5677 5672 5669 5666 5660 5656 5650 5647 5645 5643 5645 5652 5659 5669 5679 5689 5700 5711 5721 5729 5738 5748 5758 5769 5780 5790 5799 5808 5814 5819 5823 5828 5831 5833 5837 5839 5839 5840 5840 5841 5841 5843 5842
5695 5689 5683 5677 5672 5669 5666 5662 5660 5656 5653 5653 5652 5657 5665 5673 5682 5690 5700 5710 5720 5729 5740 5747 5758 5768 5777 5787 5795 5801 5806 5814 5820 5824 5826 5829 5832 5834 5835 5836 5837 5836 5836 5837 5836
5700 5693 5688 5683 5678 5675 5672 5670 5668 5666 5664 5662 5661 5663 5670 5678 5685 5694 5703 5713 5722 5731 5739 5750 5759 5769 5777 5784 5792 5799 5805 5812 5817 5820 5823 5826 5829 5829 5831 5833 5832 5832 5832 5831 5830
5705 5698 5693 5688 5684 5682 5679 5677 5675 5674 5672 5670 5670 5672 5677 5683 5690 5697 5705 5712 5721 5733 5742 5751 5761 5769 5776 5784 5792 5798 5804 5809 5814 5817 5819 5822 5825 5825 5826 5828 5827 5827 5827 5826 5824
5710 5704 5699 5694 5691 5688 5687 5684 5684 5683 5682 5683 5683 5685 5688 5691 5697 5703 5709 5719 5726 5734 5744 5752 5760 5768 5776 5783 5791 5797 5801 5805 5810 5813 5816 5818 5821 5821 5821 5822 5821 5820 5821 5820 5818
5716 5711 5705 5700 5698 5696 5695 5693 5692 5692 5690 5692 5693 5695 5697 5702 5706 5711 5717 5725 5733 5741 5748 5755 5762 5769 5776 5783 5789 5795 5798 5802 5806 5809 5812 5814 5815 5817 5816 5816 5815 5815 5814 5812 5810
5722 5718 5712 5707 5705 5704 5702 5700 5700 5701 5698 5698 5699 5702 5704 5708 5713 5719 5724 5730 5736 5744 5751 5757 5763 5769 5775 5782 5788 5792 5796 5799 5802 5805 5808 5808 5809 5811 5811 5811 5809 5809 5807 5805 5802
5727 5724 5719 5714 5713 5710 5709 5708 5709 5707 5706 5706 5706 5709 5712 5716 5719 5725 5731 5736 5742 5748 5754 5759 5765 5770 5776 5782 5787 5791 5794 5796 5799 5800 5803 5803 5803 5804 5803 5802 5802 5802 5800 5797 5794
5732 5729 5726 5722 5718 5717 5715 5716 5715 5713 5712 5713 5715 5716 5720 5722 5726 5730 5735 5741 5746 5751 5756 5761 5768 5771 5776 5781 5785 5788 5791 5793 5794 5796 5798 5797 5797 5797 5796 5794 5794 5793 5791 5787 5785
5737 5735 5731 5728 5727 5725 5723 5721 5721 5721 5723 5723 5724 5725 5727 5729 5734 5736 5740 5745 5749 5753 5759 5763 5767 5771 5775 5779 5783 5785 5787 5789 5789 5790 5790 5791 5791 5790 5789 5788 5786 5783 5780 5776 5774
5742 5739 5736 5734 5732 5731 5731 5729 5728 5728 5728 5730 5732 5733 5735 5737 5740 5741 5744 5748 5751 5755 5759 5763 5767 5770 5774 5777 5779 5781 5783 5784 5784 5783 5783 5783 5782 5782 5780 5779 5777 5774 5771 5768 5768
5748 5743 5741 5738 5737 5736 5736 5735 5735 5734 5734 5735 5738 5739 5741 5742 5744 5747 5750 5752 5754 5757 5760 5763 5766 5770 5771 5773 5774 5777 5778 5778 5778 5777 5775 5775 5775 5773 5772 5770 5767 5765 5764 5762 5758
5753 5750 5746 5743 5741 5738 5738 5739 5738 5740 5741 5742 5742 5743 5745 5747 5750 5751 5752 5754 5756 5759 5761 5763 5765 5767 5769 5770 5771 5772 5772 5772 5770 5771 5768 5767 5768 5765 5762 5759 5756 5756 5755 5752 5748
5757 5754 5751 5748 5746 5742 5740 5740 5741 5741 5742 5743 5745 5747 5749 5750 5751 5751 5753 5755 5756 5758 5760 5762 5764 5764 5765 5767 5766 5765 5765 5764 5763 5762 5762 5759 5760 5754 5752 5750 5750 5749 5745 5740 5736
5758 5757 5756 5753 5750 5748 5745 5744 5742 5742 5743 5744 5745 5746 5748 5750 5752 5753 5755 5756 5757 5757 5758 5759 5759 5760 5761 5760 5761 5760 5759 5757 5756 5756 5753 5752 5750 5746 5742 5740 5739 5736 5731 5728 5725
5756 5755 5755 5754 5752 5751 5749 5747 5746 5745 5744 5744 5744 5745 5747 5748 5749 5750 5751 5752 5753 5754 5755 5755 5755 5755 5755 5754 5753 5753 5754 5751 5749 5749 5744 5746 5741 5736 5732 5730 5727 5723 5719 5716 5713
5755 5754 5752 5752 5752 5751 5750 5749 5748 5748 5748 5747 5747 5746 5745 5745 5746 5747 5748 5749 5749 5749 5749 5749 5749 5749 5749 5746 5745 5746 5746 5742 5741 5740 5735 5732 5731 5726 5724 5720 5715 5710 5707 5703 5699
5751 5751 5749 5749 5749 5749 5749 5748 5747 5747 5747 5746 5746 5745 5745 5745 5745 5745 5746 5746 5746 5746 5745 5745 5744 5743 5743 5740 5737 5738 5738 5735 5732 5729 5726 5723 5720 5717 5712 5707 5701 5698 5695 5691 5687